Location: Aubepierre
(48.6313°N, 2.8872°E)
Time: 00:21:42
(UTC+00:00)

Daily predictions for brighter satellites

Satellite Brightness Start Highest point End
(mag) Time Altitude Azimuth Time Altitude Azimuth Time Altitude Azimuth
Cosmos 1980 Rocket 4.3 01:30:16 10° NNW 01:41:01 - ESE 01:32:42 21° N
SL-16 R/B 4.3 01:51:00 23° NNW 01:51:00 23° NNW 01:53:09 10° NNW
Resurs 1-4 Rocket 4.0 02:01:13 10° N 02:03:14 24° N 02:03:14 24° N
IDEFIX/ARIANE 42P 4.2 02:03:02 10° NNE 02:05:39 30° NNE 02:05:39 30° NNE
Cosmos 1833 Rocket 3.8 02:13:00 41° NE 02:13:00 41° NE 02:16:49 10° NE
CZ-2D R/B 3.9 02:16:44 10° N 02:18:58 24° N 02:18:58 24° N
CENTAUR R/B 3.9 02:27:14 24° SE 02:28:27 26° ESE 02:33:51 10° ENE
Lacrosse 4 Rocket 3.9 02:30:46 19° NNE 02:32:10 22° NE 02:35:36 10° E
Cosmos 2082 Rocket 3.1 02:38:49 40° ESE 02:39:09 40° ESE 02:44:23 10° NE
ADEOS II 3.4 02:39:34 10° N 02:42:28 31° N 02:42:28 31° N
Cosmos 1934 Rocket 4.5 02:48:43 48° NNW 02:48:43 48° NNW 02:53:31 10° N
Cosmos 1624 Rocket 4.4 02:50:31 62° NE 02:50:31 62° NE 02:54:58 10° NNE
CZ-2C R/B 3.7 02:45:31 10° NNE 02:50:02 35° E 02:51:08 31° SE
USA 306 4.4 03:00:25 34° NE 03:00:25 34° NE 03:02:58 10° ENE
BREEZE-M DEB (TANK) 4.4 03:04:01 20° ESE 03:04:01 20° ESE 03:05:49 10° ESE
COSMOS 2406 3.2 03:01:52 75° SE 03:02:04 77° ESE 03:07:45 10° NNE
NOSS 3-2 (A) 4.1 03:01:33 36° SSE 03:02:51 42° ESE 03:08:41 10° NE
Cosmos 1371 Rocket 4.2 03:06:18 60° NNW 03:06:18 60° NNW 03:10:43 10° NNE
Cosmos 1605 Rocket 3.9 03:06:05 64° NW 03:06:05 64° NW 03:11:48 10° N
ATLAS CENTAUR R/B 2.2 03:08:06 56° N 03:08:06 56° N 03:12:04 10° NE
Cosmos 1328 Rocket 4.1 03:12:11 54° NNE 03:12:11 54° NNE 03:15:40 10° NNE
MSX 4.4 03:06:11 10° N 03:10:47 42° NW 03:10:47 42° NW
Cosmos 2322 Rocket 4.0 03:08:12 10° NNW 03:13:11 30° NE 03:18:08 10° ESE
Meteor 1-11 Rocket 3.7 03:11:00 10° NNW 03:16:59 75° W 03:18:13 56° SSW
Cosmos 1980 Rocket 3.7 03:13:56 10° NNW 03:23:06 22° S 03:25:00 10° SSE
USA 308 3.6 03:25:30 46° N 03:25:30 46° N 03:29:04 10° ENE
Cosmos 1850 Rocket 4.2 03:20:01 10° NNW 03:25:23 74° ENE 03:30:43 10° SSE
Cosmos 44 Rocket 3.1 03:26:24 80° NW 03:26:24 80° NW 03:31:05 10° NE
PAYLOAD A 4.1 03:21:34 10° NNE 03:26:26 71° ESE 03:28:15 39° S
ATLAS 5 CENTAUR R/B 4.2 03:23:36 10° NNW 03:26:32 16° NNE 03:29:46 10° NE
SL-19 R/B 4.4 03:21:14 10° NNE 03:27:27 83° ESE 03:30:18 33° SSW
Cosmos 1378 4.4 03:30:12 27° SE 03:31:31 38° E 03:34:56 10° NNE
CBERS-1 3.9 03:27:56 10° NNE 03:33:04 75° WNW 03:33:56 60° SW
Cosmos 2056 Rocket 3.9 03:35:21 44° NW 03:35:21 44° NW 03:40:02 10° NNE
Cosmos 2173 Rocket 3.9 03:33:20 18° S 03:37:59 84° E 03:44:06 10° N
Cosmos 1420 Rocket 4.2 03:38:26 48° WNW 03:38:34 48° WNW 03:43:38 10° NNE
Cosmos 1346 Rocket 4.2 03:40:21 28° NNW 03:40:21 28° NNW 03:42:31 10° N
Cosmos 1515 Rocket 3.5 03:37:57 48° S 03:39:09 83° E 03:43:39 10° N
GP-B 4.2 03:36:07 10° SSE 03:40:20 45° E 03:44:35 10° N
Cosmos 1461 2.9 03:42:22 59° S 03:42:55 69° SE 03:47:07 10° NE
IRS-1D 4.1 03:38:10 10° N 03:43:03 40° WNW 03:43:03 40° WNW
ALOS 2.2 03:38:32 10° N 03:43:09 63° WNW 03:43:37 59° WSW
Cosmos 2278 3.5 03:38:01 10° NNW 03:43:42 75° WSW 03:49:19 10° SSE
SL-16 R/B 2.7 03:38:33 10° NNW 03:44:11 60° ENE 03:49:47 10° SE
Cosmos 1470 Rocket 4.4 03:40:46 10° NNW 03:43:30 35° NW 03:43:30 35° NW
Resurs 1-4 Rocket 4.3 03:43:21 10° NNW 03:44:18 11° NW 03:44:18 11° NW
USA 305 3.6 03:44:58 38° NNW 03:45:30 40° N 03:49:24 10° ENE
IDEFIX/ARIANE 42P 4.3 03:43:43 10° NNW 03:46:27 18° NW 03:46:27 18° NW
FENGYUN 3A 3.8 03:45:07 10° N 03:50:20 51° WNW 03:51:35 42° WSW
NOSS 3-3 (A) 4.5 03:43:22 10° NW 03:50:51 83° SW 03:59:24 10° SE
NOSS 3-3 (C) 4.5 03:43:27 10° NW 03:50:56 84° SW 03:59:31 10° SE
METEOR-M 4.1 03:47:13 10° NNE 03:52:37 90° E 03:56:56 16° SSW
CZ-3 R/B 4.5 03:39:43 20° SW 03:54:12 32° S 04:03:23 10° SE
IRS-P3 4.2 03:49:55 10° NNE 03:55:18 81° ESE 04:00:38 10° SSW
Cosmos 1833 Rocket 3.7 03:54:43 28° WNW 03:55:33 29° NW 04:00:29 10° NNE
Cosmos 1741 Rocket 3.9 03:51:53 10° NNW 03:57:05 67° WSW 04:02:14 10° S
Cosmos 2228 Rocket 4.3 03:58:28 10° SSE 04:02:42 44° E 04:06:55 10° NNE
Cosmos 2219 Rocket 4.4 03:59:48 10° N 04:04:25 25° NE 04:08:59 10° E
Cosmos 1331 Rocket 4.1 04:00:12 13° SSW 04:04:45 74° ESE 04:09:56 10° NNE
YAOGAN 6 3.0 04:02:13 10° NNE 04:05:49 63° E 04:09:22 10° S
Cosmos 1484 Rocket 2.8 04:07:01 10° NNE 04:11:00 87° E 04:14:54 10° SSW
Lacrosse 4 Rocket 1.4 04:07:07 12° NW 04:11:12 68° WSW 04:15:36 10° SSE
Lacrosse 5 rocket 4.3 04:09:28 10° SSE 04:11:58 15° ESE 04:14:26 10° E
ARIANE 5 R/B 2.4 04:07:55 10° NNE 04:12:57 76° WNW 04:17:55 10° SSW
Meteor 1-27 Rocket 4.1 04:10:33 26° SW 04:13:23 44° WNW 04:19:02 10° N
Helios 1B rocket 2.6 04:09:39 10° N 04:13:37 51° WNW 04:15:11 32° SW
CZ-2C R/B 2.6 04:09:27 10° S 04:14:37 58° W 04:19:58 10° NNW
Meteor 1-29 3.5 04:13:18 10° NNE 04:16:35 55° ESE 04:19:49 10° S
ERS-1 4.5 04:12:19 10° NNE 04:17:32 75° WNW 04:22:42 10° SSW
CENTAUR R/B 2.5 04:14:25 24° SW 04:18:18 73° NW 04:25:36 10° NE
CZ-2C R/B 3.7 04:13:11 10° NNE 04:18:53 64° E 04:24:17 10° S
Cosmos 2100 Rocket 4.2 04:15:24 16° SW 04:20:05 48° WNW 04:26:03 10° N
Cosmos 2333 Rocket 3.6 04:15:38 10° NNW 04:21:00 39° NE 04:26:17 10° ESE
Cosmos 1110 Rocket 3.9 04:16:35 14° SSW 04:21:04 76° WNW 04:26:17 10° NNE
CZ-4C R/B 3.8 04:17:26 10° SSE 04:21:40 73° ENE 04:26:03 10° N
Cosmos 2016 Rocket 4.0 04:15:24 10° SSW 04:21:46 73° W 04:28:10 10° N
ADEOS II 4.2 04:23:05 10° NW 04:23:12 10° NW 04:23:20 10° NW
Cosmos 2082 Rocket 2.8 04:20:42 25° WSW 04:23:16 39° NW 04:28:32 10° NNE
COSMO-SKYMED 1 3.9 04:20:08 10° SE 04:24:13 42° ENE 04:28:20 10° N
SL-08 R/B 4.4 04:18:16 10° SSW 04:24:22 80° W 04:30:34 10° N
Okean 1 3.7 04:23:13 25° SW 04:25:05 42° WNW 04:28:56 10° N
Cosmos 1452 Rocket 3.8 04:24:11 21° SW 04:27:29 49° WNW 04:32:38 10° NNE
Cosmos 1869 Rocket 3.5 04:23:21 10° NNW 04:27:46 67° W 04:32:07 10° S
USA 276 3.6 04:26:13 18° SSW 04:27:48 28° SSE 04:30:28 10° E
Cosmos 2360 Rocket 2.7 04:22:35 10° NNW 04:28:11 63° ENE 04:33:44 10° SE
CZ-2C R/B 3.1 04:23:46 10° N 04:28:12 34° WNW 04:30:30 22° WSW
Meteor 1-18 Rocket 4.2 04:23:15 10° S 04:28:56 87° W 04:34:34 10° N
Envisat 2.9 04:24:16 10° NNE 04:29:23 87° WNW 04:34:28 10° SSW
USA 307 3.8 04:27:02 20° WNW 04:29:26 38° N 04:33:19 10° ENE
ERBS 4.4 04:28:31 12° NNW 04:29:58 16° N 04:31:50 10° NE
Cosmos 968 Rocket 3.4 04:25:00 10° NNW 04:30:12 88° ENE 04:35:20 10° SSE
Orbus 7S? 4.5 04:33:42 21° WNW 04:35:51 44° NNW 04:42:38 10° ENE
Cosmos 489 Rocket 4.4 04:30:29 10° NNW 04:36:41 65° WSW 04:42:48 10° S
USA 306 3.8 04:35:54 16° WNW 04:38:46 38° N 04:42:38 10° ENE
H-2A R/B 2.6 04:36:41 10° NNE 04:40:22 86° ESE 04:44:02 10° SSW
SL-24 R/B - RUBIN 2 3.6 04:38:52 18° WSW 04:42:02 57° NW 04:46:22 10° NNE
Cosmos 2061 Rocket 4.0 04:36:03 10° SSW 04:42:09 62° WNW 04:48:19 10° N
PSLV R/B 3.7 04:41:14 10° NNE 04:45:35 78° ESE 04:49:50 10° S
ATLAS CENTAUR R/B 3.4 04:44:03 14° WNW 04:46:44 20° NNW 04:50:19 10° NNE
Cosmos 1733 Rocket 3.4 04:42:20 10° N 04:46:47 71° E 04:51:09 10° SSE
COSMOS 2406 4.4 04:43:57 16° W 04:46:59 24° NW 04:51:35 10° N
Cosmos 2344 4.4 04:40:03 10° NW 04:48:38 74° NE 05:00:33 10° SE
CZ-2D R/B 3.9 04:46:00 10° N 04:49:41 37° WNW 04:53:25 10° SW
X-37B 2.7 04:49:24 12° SW 04:49:47 12° SSW 04:50:57 10° S
Meteor 2-4 Rocket 3.7 04:45:41 10° SSW 04:51:23 68° WNW 04:56:57 10° N
COSMOS 2428 4.4 04:47:03 10° NNW 04:52:16 34° NE 04:57:27 10° ESE
NOSS 3-2 (A) 3.8 04:48:58 15° WSW 04:53:37 48° NW 05:00:03 10° NE
NOSS 3-2 (C) 3.3 04:48:44 10° SW 04:54:15 73° NW 05:00:49 10° NE
Cosmos 1975 3.4 04:52:34 10° NNW 04:56:12 35° W 04:59:48 10° SSW
Cosmos 2322 Rocket 2.3 04:52:01 10° NW 04:57:36 58° WSW 05:03:07 10° S
SL-08 R/B 4.0 04:54:25 10° SSW 04:58:35 31° W 05:02:50 10° NNW
Cosmos 2237 4.3 04:53:53 10° NW 04:59:25 53° WSW 05:04:54 10° S
Cosmos 1242 Rocket 2.8 04:56:52 10° NNW 05:00:08 40° W 05:03:19 10° SSW
CZ-2C R/B 2.7 04:56:43 10° N 05:00:31 75° WNW 05:04:22 10° SSW
Cosmos 2233 Rocket 4.1 04:56:53 10° SSW 05:03:07 60° WNW 05:09:22 10° N
USA 308 3.8 05:01:06 10° WNW 05:04:59 40° N 05:08:53 10° ENE
COSMOS 2455 2.8 05:01:09 10° NW 05:07:10 72° WSW 05:13:09 10° SSE
Cosmos 1805 3.2 05:05:27 10° NNW 05:09:18 67° W 05:13:08 10° S
USA 238 DEB 3.7 05:03:40 10° SW 05:10:06 68° NW 05:17:02 10° NE
USA 238 3.7 05:03:46 10° SW 05:10:12 68° NW 05:17:08 10° NE
Tsikada Rocket 4.4 05:04:50 10° NNW 05:10:36 39° W 05:16:16 10° SSW
SKYMED 2 3.5 05:07:57 10° S 05:12:15 66° WSW 05:16:36 10° NNW
ATLAS 5 CENTAUR R/B 3.5 05:07:38 10° NNW 05:12:21 38° NE 05:17:59 10° ESE
CZ-4B R/B 3.7 05:09:25 10° NNE 05:14:43 89° ESE 05:20:00 10° SSW
Aureole 1 Rocket 3.8 05:13:15 10° NNW 05:16:56 43° ENE 05:20:00 10° SE
GP-B 4.4 05:14:32 10° SW 05:17:52 21° W 05:21:13 10° NNW
Cosmos 1464 Rocket 4.4 05:12:27 10° S 05:18:35 69° E 05:24:41 10° NNE
ALOS 4.3 05:19:14 10° NW 05:19:36 10° NW 05:19:58 10° WNW
Cosmos 1733 3.4 05:16:40 10° NNW 05:20:14 43° W 05:23:47 10° SSW
SL-27 R/B 4.1 05:18:26 10° S 05:21:43 39° ESE 05:25:01 10° NE
Cosmos 1461 4.3 05:19:02 10° W 05:22:18 22° NNW 05:25:42 10° NNE
USA 290 2.6 05:21:44 10° NW 05:24:46 40° WSW 05:27:48 10° S
USA 305 3.6 05:21:24 10° WNW 05:25:22 45° NNE 05:29:20 10° E
Cosmos 2322 4.1 05:21:44 10° NNW 05:27:26 71° ENE 05:33:07 10° SE
Meteor 2-14 Rocket 4.5 05:22:06 10° N 05:28:13 84° W 05:34:19 10° S
